User: anonymous
Location: Oshawa
(43.9000°N, 78.8670°W)
Time: 00:22:56
(UTC-04:00)
Language:

Cosmos 1805 Rocket - Orbit

View from above orbital plane
View from above orbital plane
View from above satellite
View from above satellite

Ground track
Ground track

The orbit data is extracted from the following two-line orbital elements,

1 17192U 86097B   14274.06571146  .00000600  00000-0  70674-4 0  5695
2 17192 082.5036 105.5771 0018591 122.9655 359.6035 14.83008142501903
Epoch (UTC): 01 October 2014 01:34:37
Eccentricity: 0.0018591
inclination: 82.5036°
perigee height: 607 km
apogee height: 633 km
right ascension of ascending node: 105.5771°
argument of perigee: 122.9655°
revolutions per day: 14.83008142
mean anomaly at epoch: 359.6035°
orbit number at epoch: 50190

The dashed part of the orbit path shows where the satellite is in the earth's shadow,  

DLR